Weather History for Willimantic, CT

Change the Weather History Date:

Friday, February 8, 2013

  Actual Average Record
Temperature  
Mean Temperature 27 °F -  
Max Temperature 33 °F 32 °F 52 °F (2009)
Min Temperature 21 °F 12 °F -16 °F (1967)
Degree Days  
Heating Degree Days 38    
Moisture  
Dew Point 23 °F    
Average Humidity 79    
Maximum Humidity 89    
Minimum Humidity 43    
Precipitation  
Precipitation 0.59 in - - ()
Sea Level Pressure  
Sea Level Pressure 29.97 in    
Wind  
Wind Speed 11 mph (NE)    
Max Wind Speed 30 mph    
Max Gust Speed 148 mph    
Visibility 3 miles    
Events Fog , Snow    
Averages and records for this station are not official NWS values.
T = Trace of Precipitation, MM = Missing Value Source: NWS Daily Summary

Daily Weather History Graph

Daily Weather History Graph

Search for Another Location

Airport:

Trip Planner

Search our weather history database for the weather conditions in past years. The results will help you decide how hot, cold, wet, or windy it might be!

Date:

Astronomy

Feb. 08, 2013 Rise Set
Actual Time 6:52 AM EST 5:13 PM EST
Civil Twilight 6:23 AM EST 5:42 PM EST
Nautical Twilight 5:51 AM EST 6:15 PM EST
Astronomical Twilight 5:18 AM EST 6:47 PM EST
Moon 5:20 AM EST (2/8) 3:43 PM EST (2/8)
Length of Visible Light 11h 18m
Length of Day
10h 20m
Waning Crescent, 3% of the Moon is Illuminated
Feb 8
Waning Crescent
Feb 10
New
Feb 17
First Quarter
Feb 25
Full
Mar 4
Last Quarter

Hourly Weather History & Observations

Time (EST) Temp. Windchill Dew Point Humidity Pressure Visibility Wind Dir Wind Speed Gust Speed Precip Events Conditions
12:52 AM 26.1 °F 19.4 °F 6.1 °F 43% 30.42 in 10.0 mi ENE 5.8 mph - N/A   Overcast
1:52 AM 26.1 °F 19.4 °F 12.0 °F 55% 30.39 in 10.0 mi NE 5.8 mph - N/A   Mostly Cloudy
2:52 AM 27.0 °F 18.7 °F 16.0 °F 63% 30.36 in 10.0 mi NE 8.1 mph - N/A   Overcast
3:23 AM 26.6 °F 19.1 °F 17.6 °F 69% 30.35 in 10.0 mi ENE 6.9 mph - N/A   Overcast
3:52 AM 28.0 °F 22.8 °F 18.0 °F 66% 30.35 in 10.0 mi ENE 4.6 mph - N/A   Overcast
4:52 AM 28.0 °F 20.0 °F 19.0 °F 69% 30.30 in 10.0 mi ENE 8.1 mph - N/A   Overcast
5:52 AM 30.0 °F 23.2 °F 21.0 °F 69% 30.29 in 10.0 mi ENE 6.9 mph - N/A   Overcast
6:52 AM 30.0 °F 22.4 °F 21.9 °F 72% 30.27 in 10.0 mi ENE 8.1 mph - N/A   Overcast
7:52 AM 30.0 °F 22.4 °F 21.9 °F 72% 30.25 in 10.0 mi East 8.1 mph - N/A   Overcast
8:34 AM 30.2 °F 21.9 °F 23.0 °F 75% 30.22 in 1.5 mi ENE 9.2 mph - 0.00 in Snow Light Snow
8:44 AM 30.2 °F 22.6 °F 24.8 °F 80% 30.22 in 0.8 mi ENE 8.1 mph - 0.00 in Snow Light Snow
8:52 AM 30.0 °F 23.2 °F 24.1 °F 79% 30.23 in 0.8 mi ENE 6.9 mph 16.1 mph 0.00 in Snow Light Snow
9:02 AM 30.2 °F 22.6 °F 24.8 °F 80% 30.21 in 1.0 mi ENE 8.1 mph - 0.00 in Snow Light Snow
9:20 AM 30.2 °F 21.9 °F 24.8 °F 80% 30.21 in 1.5 mi ENE 9.2 mph - 0.00 in Snow Light Snow
9:47 AM 30.2 °F 21.9 °F 24.8 °F 80% 30.20 in 0.8 mi East 9.2 mph - 0.01 in Snow Light Snow
9:52 AM 30.0 °F 20.5 °F 25.0 °F 82% 30.20 in 0.8 mi ENE 11.5 mph 18.4 mph 0.01 in Snow Light Snow
10:02 AM 30.2 °F 21.9 °F 24.8 °F 80% 30.19 in 1.0 mi ENE 9.2 mph - 0.00 in Snow Light Snow
10:52 AM 30.9 °F 20.2 °F 25.0 °F 79% 30.16 in 1.5 mi ENE 15.0 mph 21.9 mph 0.00 in Snow Light Snow
11:52 AM 30.9 °F 19.4 °F 26.1 °F 82% 30.08 in 0.8 mi NE 17.3 mph 21.9 mph 0.01 in Snow Light Snow
12:52 PM 32.0 °F 22.1 °F 27.0 °F 82% 30.03 in 0.8 mi ENE 13.8 mph 24.2 mph 0.01 in Snow Light Snow
1:52 PM 33.1 °F 23.4 °F 28.0 °F 82% 29.96 in 0.5 mi NE 13.8 mph 25.3 mph 0.02 in Snow Snow
2:35 PM 33.8 °F 23.2 °F 28.4 °F 81% 29.92 in 0.2 mi ENE 17.3 mph 27.6 mph 0.02 in Fog , Snow Snow
2:52 PM 33.1 °F 23.0 °F 28.9 °F 85% 29.91 in 0.5 mi ENE 15.0 mph 26.5 mph 0.03 in Fog , Snow Snow
2:59 PM 33.8 °F 21.9 °F 28.4 °F 81% 29.89 in 0.5 mi NE 21.9 mph 28.8 mph 0.00 in Fog , Snow Snow
3:52 PM 33.1 °F 21.9 °F 28.0 °F 82% 29.84 in 1.0 mi NE 18.4 mph 28.8 mph 0.01 in Snow Light Snow
3:59 PM 33.8 °F 21.6 °F 28.4 °F 81% 29.82 in 1.0 mi NE 23.0 mph 28.8 mph 0.00 in Snow Light Snow
4:08 PM 33.8 °F 21.3 °F 28.4 °F 81% 29.81 in 0.8 mi NE 24.2 mph 32.2 mph 0.00 in Snow Light Snow
4:22 PM 33.8 °F 22.5 °F 28.4 °F 81% 29.80 in 0.8 mi NE 19.6 mph 32.2 mph 0.00 in Snow Light Snow
4:52 PM 30.0 °F 18.3 °F 26.1 °F 85% 29.79 in 0.5 mi NNE 17.3 mph - 0.00 in Fog , Snow Snow
4:57 PM 28.4 °F 16.2 °F 24.8 °F 86% 29.79 in 0.2 mi NNE 17.3 mph - 0.00 in Fog , Snow Snow
5:09 PM 28.4 °F 17.5 °F 24.8 °F 86% 29.79 in 0.5 mi NNE 13.8 mph 23.0 mph 0.01 in Fog , Snow Snow
5:41 PM 28.4 °F 17.0 °F 24.8 °F 86% 29.76 in 0.2 mi NNE 15.0 mph - 0.02 in Fog , Snow Heavy Snow
5:52 PM 28.0 °F 16.1 °F 24.1 °F 85% 29.77 in 0.2 mi NNE 16.1 mph 25.3 mph 0.02 in Fog , Snow Heavy Snow
6:52 PM 28.0 °F 15.7 °F 24.1 °F 85% 29.71 in 0.2 mi NNE 17.3 mph 25.3 mph 0.05 in Fog Light Freezing Fog
7:52 PM 27.0 °F 14.7 °F 24.1 °F 89% 29.67 in 0.2 mi NNE 16.1 mph 25.3 mph 0.04 in Fog Light Freezing Fog
8:24 PM 24.8 °F - 21.2 °F 86% 29.63 in 0.2 mi North - - 0.02 in Fog Light Freezing Fog
8:52 PM 24.1 °F - 19.9 °F 84% 29.61 in 0.2 mi North - - 0.05 in Fog Light Freezing Fog
9:20 PM 24.8 °F 12.4 °F 21.2 °F 86% 29.56 in 0.2 mi North 15.0 mph 140.4 mph 0.11 in Fog Light Freezing Fog
9:52 PM 24.1 °F - 19.9 °F 84% 29.59 in 0.5 mi North - - 0.29 in Fog Light Freezing Fog
10:15 PM 24.8 °F - 19.4 °F 80% 29.58 in 0.5 mi North - - 0.04 in Fog Light Freezing Fog
10:52 PM 23.0 °F 6.6 °F 19.0 °F 85% 29.59 in 0.8 mi NNE 25.3 mph 59.8 mph 0.04 in   Mist
11:12 PM 23.0 °F - 17.6 °F 80% 29.58 in 0.8 mi North - - N/A   Haze
11:21 PM 21.2 °F 3.0 °F 17.6 °F 86% 29.58 in 1.0 mi NNE 29.9 mph 148.5 mph N/A   Haze
11:52 PM 21.9 °F 6.2 °F 17.1 °F 82% 29.60 in 1.0 mi NNE 21.9 mph 35.7 mph 0.01 in   Haze